Tracking 25195 objects as of 21-Jan-2022
HD Live streaming from Space Station
objects crossing your sky now

STARLINK-1683

Track STARLINK-1683 now!
10-day predictions
STARLINK-1683 is classified as:


NORAD ID: 46578
Int'l Code: 2020-070AY
Perigee: 553.4 km
Apogee: 555.3 km
Inclination: 53.1 °
Period: 95.6 minutes
Semi major axis: 6925 km
RCS: Unknown
Launch date: October 6, 2020
Source: United States (US)
Launch site: AIR FORCE EASTERN TEST RANGE (AFETR)
aabbcc
Your satellite tracking list
Your tracking list is empty




NASA's NSSDC Master Catalog

Two Line Element Set (TLE):
1 46578U 20070AY  22020.54038197  .00002396  00000-0  17966-3 0  9994
2 46578  53.0553  81.4616 0001353  87.7501 272.3643 15.06402243 72169
Source of the keplerian elements: AFSPC